Skip Page Navigation
NASA JPL Caltech
NASA Logo - Jet Propulsion Laboratory + View the NASA Portal
+ Center for Near-Earth Object Studies
JPL Home Earth Solar System Stars & Galaxies Technology
JPL Solar System Dynamics
BODIES ORBITS EPHEMERIDES TOOLS PHYSICAL DATA DISCOVERY FAQ SITE MAP
JPL Small-Body Database Browser
Search: [ help ]  
243067 (2007 GE34)
Classification: Main-belt Asteroid          SPK-ID: 2243067
Ephemeris | Orbit Diagram | Orbital Elements | Mission Design | Physical Parameters | Discovery Circumstances | Close-Approach Data ]

[ show orbit diagram ]
Orbital Elements at Epoch 2459000.5 (2020-May-31.0) TDB
Reference: JPL 18 (heliocentric ecliptic J2000)
 Element Value Uncertainty (1-sigma)   Units 
e .1794191653181631 8.6145e-08  
a 3.171593975093461 5.8102e-08 au
q 2.602549231354077 2.8795e-07 au
i 28.15593640075537 9.7979e-06 deg
node 220.7955905501203 1.2428e-05 deg
peri 33.19671072185514 2.1138e-05 deg
M 82.97336286050769 2.2505e-05 deg
tp 2458524.999481866952
(2019-Feb-10.49948187)
0.00011973 TDB
period 2063.07398695748
5.65
5.6692e-05
1.552e-07
d
yr
n .1744968926349123 4.7951e-09 deg/d
Q 3.740638718832844 6.8527e-08 au
  Orbit Determination Parameters
   # obs. used (total)      293  
   data-arc span      6255 days (17.13 yr)  
   first obs. used      2002-07-13  
   last obs. used      2019-08-28  
   planetary ephem.      DE431  
   SB-pert. ephem.      SB431-N16  
   condition code      0  
   norm. resid. RMS      .54595  
   source      ORB  
   producer      Otto Matic  
   solution date      2019-Sep-24 04:15:39  

Additional Information
 Earth MOID = 1.6224 au 
 Jupiter MOID = 1.34605 au 
 T_jup = 2.995 
[ show covariance matrix ]

Ephemeris | Orbit Diagram | Orbital Elements | Mission Design | Physical Parameters | Discovery Circumstances | Close-Approach Data ]

Physical Parameter Table
Parameter Symbol Value Units Sigma Reference Notes
absolute magnitude H 14.9   n/a MPO433593  
diameter diameter 5.889 km 1.146 urn:nasa:pds:neowise_diameters_albedos::2.0[mainbelt] (http://adsabs.harvard.edu/abs/2011ApJ...741...68M)  
geometric albedo albedo 0.061   0.023 urn:nasa:pds:neowise_diameters_albedos::2.0[mainbelt] (http://adsabs.harvard.edu/abs/2011ApJ...741...68M)  

243067 (2007 GE34)          Discovered 2007-Apr-13 by Siding Spring Survey at Siding Spring
Reference: 20100626/Numbers.arcLast Updated: 2010-06-28

[ show close-approach data ]
Alternate Designations
 2007 GE34 = 2002 NR38 = 2008 JM24 
Ephemeris | Orbit Diagram | Orbital Elements | Mission Design | Physical Parameters | Discovery Circumstances | Close-Approach Data ]
ABOUT SSD CREDITS/AWARDS PRIVACY/COPYRIGHT GLOSSARY LINKS
FirstGov 2020-Aug-10 17:20 UT
(server date/time)  
NASA Home Page
Site Manager:   Ryan S. Park
Webmaster  Alan B. Chamberlin